Location: Baia Mare
(47.6567°N, 23.5850°E)
Time: 10:57:15

ISS - Pass Details

Date: 02 April 2018
Orbit: 403 x 406 km, 51.6° (Epoch: 21 March)

Event Time Altitude Azimuth Distance (km) Brightness Sun altitude
Rises 21:56:08 0° 290° (WNW) 2,327 1.5 -19.6°
Reaches altitude 10° 21:58:16 10° 296° (WNW) 1,466 0.2 -19.9°
Maximum altitude 22:01:28 48° 13° (NNE) 538 -3.2 -20.3°
Enters shadow 22:01:34 48° 20° (NNE) 540 -3.2 -20.4°
